Weather in Mirnyy

Russia / Volgograd Oblast     51°11′02″N   42°49′03″E
temp.,
°C
wind,
m/s
gust,
m/s
humid.,
%
clouds,
%
prec.,
mm/h
press.,
hPa
HPBL,
m
3 august, tue
tue300:00+25s22375 0.0 100917
03:00+23sw22475 0.0 101012
06:00+23ssw344899 0.0 101087
09:00+31sw353764 0.0 1010529
12:00+34sw6102767 0.0 10103059
15:00+32wnw8835100 0.0 10091215
18:00+29w364599 0.0 10111233
21:00+23sw1168100 0.2 101120
4 august, wed
wed400:00+23w1167100 0.1 101118
03:00+19wnw249355 6.0 1013207
06:00+20ne479210 0.2 1013327
09:00+23n33727 0.4 1013757
12:00+26nw345262 0.1 10131500
15:00+25nnw665299 0.4 1013964
18:00+24nw3652100 0.0 1014295
21:00+22n495270 0.0 1016352
5 august, thu
thu500:00+18nnw35615 0.0 101684
03:00+17nnw33665 0.0 101744
06:00+17n356348 0.0 1018115
09:00+23n334315 0.0 1018655
12:00+26nnw33321 0.0 10172281
15:00+28n3329100 0.0 10172508
18:00+27ene22357 0.0 1016348
21:00+20ene4648100 0.0 101792
6 august, fri
fri600:00+19e485262 0.0 1016124
03:00+17ese48559 0.0 1016136
06:00+18se48565 0.0 1016164
09:00+25se46393 0.0 1016629
12:00+29sse43306 0.0 10151942
15:00+30se332799 0.0 10142328
18:00+29ese35325 0.0 1013351
21:00+23ese484090 0.0 101497
7 august, sat
sat700:00+21ese4124337 0.0 1013191
03:00+20se5144122 0.0 1013247
06:00+20ese51342100 0.0 1014257
09:00+26se6931100 0.0 1014525
12:00+31se56245 0.0 10131474
15:00+32ese5521100 0.0 10122144
18:00+29ese4728100 0.0 1012226
21:00+25e41031100 0.0 1012169